Regional Weather Roundup
Issued by NWS State College, PA

Home | Current Version | Previous Version | Text Only | Print | Product List | Glossary Off
Versions: 1 2 3 4 5 6 7 8 9 10 11 12 13 14 15 16 17 18 19 20 21 22 23 24 25 26 27 28 29 30 31 32 33 34 35 36 37 38 39 40 41 42 43 44 45 46 47 48 49 50

000
ASUS41 KCTP 280703
RWRCTP

REGIONAL WEATHER ROUNDUP
NATIONAL WEATHER SERVICE STATE COLLEGE PA
300 AM EDT THU AUG 28 2014

Note: "fair" indicates few or no clouds below 12,000 feet with no
significant weather and/or obstructions to visibility.

* = STATION THAT DOES NOT REPORT PRECIPITATION /E.G. RAIN...SNOW...ETC/
    THUNDER OR FOG.

PAZ002>004-007>009-013>016-020>023-029>032-280800-
WESTERN PENNSYLVANIA

CITY           SKY/WX    TMP DP  RH WIND       PRES   REMARKS
ERIE           CLEAR     64  50  60 N9        30.08S
MEADVILLE      CLEAR     57  54  89 N5        30.08F
FRANKLIN*      CLEAR     55  52  88 N3        30.09S
NEW CASTLE     FAIR      58  56  93 CALM      30.09S
BEAVER COUNTY  NOT AVBL
BUTLER*        PTCLDY    61  55  82 N3        30.09S
PITTSBURGH INT MOCLDY    64  57  78 N10       30.07S
PITTSBURGH     PTCLDY    63  58  83 NW7       30.06R
INDIANA*       CLEAR     61  59  94 CALM      30.09S
LATROBE        CLEAR     63  63 100 CALM      30.07R
WASHINGTON CO* PTCLDY    61  57  88 NW3       30.08S
$$

PAZ004>006-010>012-017>019-024>028-033>037-041-042-045-046-049>053-280800-
CENTRAL PENNSYLVANIA

CITY           SKY/WX    TMP DP  RH WIND       PRES   REMARKS
BRADFORD       MOCLDY    57  54  89 N7        30.05F
DUBOIS         CLEAR     58  57  97 NW7       30.05S
CLEARFIELD     CLEAR     59  57  93 NW8       30.04F
JOHNSTOWN      MOCLDY    61  58  90 N8        30.05F
ALTOONA        MOCLDY    64  60  87 CALM      30.02F
STATE COLLEGE  PTCLDY    63  57  81 CALM      30.01S
WILLIAMSPORT   CLEAR     65  56  72 NW5       29.97S
SELINSGROVE    CLEAR     67  63  87 NE6       29.96S
FT INDIANTOWN  MOCLDY    72  68  88 VRB2      29.93S
CAPITAL CITY   PTCLDY    75  65  70 N8        29.93S
HARRISBURG     MOCLDY    75  65  70 NW10      29.91S
YORK           MOCLDY    68  67  96 CALM      29.92F
$$

PAZ038>040-043-044-047-048-054-055-060>062-067>071-280800-
EASTERN PENNSYLVANIA

CITY           SKY/WX    TMP DP  RH WIND       PRES   REMARKS
SCRANTON       CLEAR     65  56  72 N7        29.97S
MOUNT POCONO   CLEAR     61  52  72 N10       29.95F
ALLENTOWN      CLEAR     72  61  68 N8        29.91S
QUAKERTOWN*    MOSUNNY   73  64  73 MISG      29.91S
READING        PTCLDY    73  65  75 NW7       29.90S
LANCASTER      PTCLDY    71  66  84 NW5       29.91F
COATESVILLE    MOSUNNY   72  70  94 N7        29.91F
POTTSTOWN      CLEAR     72  67  84 CALM      29.91S
BLUE BELL      CLEAR     75  66  73 N3        29.87S
DOYLESTOWN     CLEAR     72  65  78 VRB5      29.88S
WILLOW GROVE   NOT AVBL
NORTH PHILA    CLEAR     77  64  64 N13       29.87S
PHILADELPHIA   PTCLDY    78  67  68 N10       29.86S
$$


USA.gov is the U.S. government's official web portal to all federal, state and local government web resources and services.